Date String (YYYY-MM-DD hh:mm:ss) UTC,Instrument flags,Ambient pressure (hPa),Sample flow (lpm),Bypass flow (lpm),Sample temperature (°C),Ambient temperature (°C),ASC tube jacket temperature (°C),LED temperature (°C),Box temperature (°C),Sample RH (%),Span deviation,Mass concentration (μg/m³),Mass concentration (μg/m³),Mass concentration (μg/m³)
DateTimeUTC,F1_M11,P_M11,Q1_M11,Q2_M11,T1_M11,T2_M11,T3_M11,T4_M11,T5_M11,U1_M11,ZSPAN_M11,X0_M11,X2_M11,X1_M11
2022-03-05 08:00:00,,0815.8,5.00,0.00,26.7,25.9,00.0,35.7,28.5,18.7,0000.0,0005.87,0003.22,0002.37
2022-03-05 08:01:00,,0815.9,4.99,0.00,26.7,25.8,00.0,35.7,28.5,18.7,0000.0,0006.11,0003.40,0002.64
2022-03-05 08:02:00,,0815.9,5.00,0.00,26.7,25.8,00.0,35.7,28.4,18.7,0000.0,0006.50,0003.55,0002.86
2022-03-05 08:03:00,,0815.8,5.00,0.00,26.6,25.8,00.0,35.7,28.4,18.7,0000.0,0006.77,0003.65,0003.02
2022-03-05 08:04:00,,0815.8,4.99,0.00,26.6,25.8,00.0,35.7,28.5,18.6,0000.0,0007.00,0003.76,0003.17
2022-03-05 08:05:00,,0815.8,4.99,0.00,26.6,25.8,00.0,35.7,28.4,18.6,0000.0,0007.21,0003.91,0003.32
2022-03-05 08:06:00,,0815.8,5.00,0.00,26.6,25.8,00.0,35.7,28.4,18.6,0000.0,0007.51,0004.09,0003.48
2022-03-05 08:07:00,,0815.8,5.00,0.00,26.6,25.8,00.0,35.7,28.4,18.6,-000.0,0007.65,0004.26,0003.65
2022-03-05 08:08:00,,0815.8,4.99,0.00,26.6,25.8,00.0,35.7,28.4,18.6,-000.4,0007.76,0004.42,0003.82
2022-03-05 08:09:00,,0815.8,5.01,0.00,26.6,25.7,00.0,35.7,28.4,18.5,-000.0,0007.83,0004.50,0003.93
2022-03-05 08:10:00,,0815.8,5.01,0.00,26.6,25.7,00.0,35.6,28.4,18.5,0000.0,0007.87,0004.57,0004.01
2022-03-05 08:11:00,,0815.8,4.99,0.00,26.6,25.7,00.0,35.6,28.3,18.5,0000.2,0007.90,0004.64,0004.10
2022-03-05 08:12:00,,0815.8,5.00,0.00,26.5,25.7,00.0,35.6,28.3,18.5,0000.2,0007.85,0004.68,0004.18
2022-03-05 08:13:00,,0815.8,5.00,0.00,26.5,25.7,00.0,35.6,28.3,18.6,0000.2,0007.88,0004.74,0004.26
2022-03-05 08:14:00,,0815.8,4.99,0.00,26.5,25.7,00.0,35.6,28.3,18.6,0000.3,0008.21,0004.81,0004.34
2022-03-05 08:15:00,,0815.8,4.99,0.00,26.5,25.7,00.0,35.6,28.3,18.6,0000.1,0008.37,0004.85,0004.38
2022-03-05 08:16:00,,0815.8,5.01,0.00,26.5,25.7,00.0,35.6,28.3,18.6,0000.8,0008.38,0004.88,0004.43
2022-03-05 08:17:00,,0815.8,4.99,0.00,26.5,25.7,00.0,35.6,28.3,18.5,0000.4,0008.42,0004.91,0004.48
2022-03-05 08:18:00,,0815.8,5.00,0.00,26.6,25.7,00.0,35.6,28.4,18.5,0000.3,0008.49,0004.98,0004.54
2022-03-05 08:19:00,,0815.8,5.01,0.00,26.5,25.7,00.0,35.6,28.3,18.5,0000.4,0008.57,0005.05,0004.61
2022-03-05 08:20:00,,0815.8,5.01,0.00,26.5,25.7,00.0,35.6,28.3,18.5,0000.4,0008.79,0005.19,0004.70
2022-03-05 08:21:00,,0815.8,4.99,0.00,26.6,25.7,00.0,35.6,28.4,18.4,0000.1,0009.13,0005.30,0004.79
2022-03-05 08:22:00,,0815.8,4.99,0.00,26.6,25.7,00.0,35.6,28.4,18.4,-000.3,0009.34,0005.40,0004.86
2022-03-05 08:23:00,,0815.8,4.99,0.00,26.5,25.7,00.0,35.6,28.4,18.4,-000.6,0009.40,0005.47,0004.91
2022-03-05 08:24:00,,0815.8,5.01,0.00,26.6,25.7,00.0,35.6,28.4,18.4,-000.9,0009.44,0005.54,0004.98
2022-03-05 08:25:00,,0815.8,5.01,0.00,26.6,25.7,00.0,35.6,28.4,18.4,-001.3,0009.24,0005.61,0005.04
2022-03-05 08:26:00,,0815.8,5.00,0.00,26.6,25.7,00.0,35.5,28.4,18.4,-001.2,0009.23,0005.71,0005.14
2022-03-05 08:27:00,,0815.8,5.01,0.00,26.6,25.7,00.0,35.5,28.4,18.3,-001.3,0009.42,0005.83,0005.23
2022-03-05 08:28:00,,0815.8,5.01,0.00,26.6,25.7,00.0,35.5,28.4,18.3,-001.3,0009.48,0005.92,0005.33
2022-03-05 08:29:00,,0815.8,5.01,0.00,26.6,25.7,00.0,35.5,28.4,18.3,-001.0,0009.66,0006.03,0005.42
2022-03-05 08:30:00,,0815.8,5.00,0.00,26.6,25.7,00.0,35.5,28.4,18.3,-001.0,0009.78,0006.09,0005.47
2022-03-05 08:31:00,,0815.8,5.00,0.00,26.5,25.7,00.0,35.5,28.4,18.3,-001.0,0009.86,0006.12,0005.51
2022-03-05 08:32:00,,0815.8,4.99,0.00,26.6,25.7,00.0,35.5,28.4,18.3,-001.0,0009.69,0006.12,0005.53
2022-03-05 08:33:00,,0815.8,5.00,0.00,26.6,25.7,00.0,35.5,28.4,18.3,-001.0,0009.79,0006.17,0005.58
2022-03-05 08:34:00,,0815.8,5.00,0.00,26.5,25.7,00.0,35.5,28.4,18.3,-000.9,0009.99,0006.22,0005.62
2022-03-05 08:35:00,,0815.8,5.00,0.00,26.6,25.7,00.0,35.5,28.4,18.3,-000.6,0010.17,0006.28,0005.66
2022-03-05 08:36:00,,0815.8,5.01,0.00,26.6,25.7,00.0,35.5,28.4,18.2,-000.4,0010.40,0006.35,0005.68
2022-03-05 08:37:00,,0815.8,5.02,0.00,26.6,25.7,00.0,35.5,28.4,18.2,-000.5,0010.76,0006.44,0005.73
2022-03-05 08:38:00,,0815.8,5.00,0.00,26.5,25.7,00.0,35.5,28.3,18.2,-000.4,0011.00,0006.52,0005.78
2022-03-05 08:39:00,,0815.8,4.99,0.00,26.5,25.7,00.0,35.5,28.3,18.2,-000.1,0011.13,0006.60,0005.81
2022-03-05 08:40:00,,0815.7,5.00,0.00,26.5,25.7,00.0,35.5,28.3,18.1,-000.4,0011.19,0006.65,0005.84
2022-03-05 08:41:00,,0815.8,5.00,0.00,26.5,25.6,00.0,35.5,28.3,18.1,-000.2,0011.22,0006.69,0005.87
2022-03-05 08:42:00,,0815.7,5.00,0.00,26.5,25.7,00.0,35.5,28.3,18.1,0000.1,0011.14,0006.70,0005.90
2022-03-05 08:43:00,,0815.7,5.02,0.00,26.5,25.7,00.0,35.5,28.3,18.1,0000.2,0011.27,0006.78,0005.95
2022-03-05 08:44:00,,0815.6,5.00,0.00,26.5,25.6,00.0,35.5,28.3,18.1,0000.4,0011.20,0006.79,0005.97
2022-03-05 08:45:00,,0815.6,4.99,0.00,26.5,25.6,00.0,35.5,28.3,18.1,0000.3,0011.21,0006.83,0006.00
2022-03-05 08:46:00,,0815.6,4.99,0.00,26.5,25.7,00.0,35.5,28.3,18.1,0000.3,0011.38,0006.88,0006.03
2022-03-05 08:47:00,,0815.7,5.00,0.00,26.5,25.6,00.0,35.5,28.3,18.1,0000.3,0011.66,0006.92,0006.07
2022-03-05 08:48:00,,0815.6,5.02,0.00,26.5,25.6,00.0,35.5,28.3,18.1,0000.7,0011.36,0006.90,0006.08
2022-03-05 08:49:00,,0815.6,4.99,0.00,26.5,25.6,00.0,35.5,28.3,18.1,0000.5,0011.26,0006.88,0006.09
2022-03-05 08:50:00,,0815.6,5.00,0.00,26.5,25.6,00.0,35.5,28.3,18.1,0000.3,0011.21,0006.81,0006.03
2022-03-05 08:51:00,,0815.6,5.00,0.00,26.5,25.6,00.0,35.5,28.3,18.1,0000.2,0011.10,0006.75,0006.00
2022-03-05 08:52:00,,0815.7,4.99,0.00,26.4,25.6,00.0,35.5,28.3,18.1,-000.0,0011.17,0006.77,0006.00
2022-03-05 08:53:00,,0816.0,5.00,0.00,26.5,25.6,00.0,35.5,28.3,18.1,-000.2,0011.42,0006.86,0006.03
2022-03-05 08:54:00,,0816.1,5.01,0.00,26.4,25.6,00.0,35.5,28.3,18.1,-000.2,0011.41,0006.87,0006.05
2022-03-05 08:55:00,,0816.0,5.00,0.00,26.4,25.6,00.0,35.4,28.3,18.1,-000.2,0011.49,0006.89,0006.07
2022-03-05 08:56:00,,0816.0,5.00,0.00,26.4,25.6,00.0,35.4,28.3,18.1,-000.0,0011.55,0006.90,0006.09
2022-03-05 08:57:00,,0815.8,5.01,0.00,26.5,25.6,00.0,35.4,28.3,18.1,0000.6,0011.37,0006.84,0006.09
2022-03-05 08:58:00,,0815.6,5.01,0.00,26.5,25.6,00.0,35.4,28.3,18.1,0000.6,0010.81,0006.77,0006.07
2022-03-05 08:59:00,,0815.6,5.00,0.00,26.4,25.6,00.0,35.4,28.3,18.1,0000.4,0010.76,0006.73,0006.05
